Weather History for Pinedale, WY

Change the Weather History Date:

Monday, November 5, 2012

  Actual Average (KBPI) Record (KBPI)
Temperature  
Mean Temperature 42 °F 30 °F  
Max Temperature 53 °F 44 °F 64 °F (1999)
Min Temperature 30 °F 15 °F -7 °F (2003)
Degree Days  
Heating Degree Days 24 36  
Month to date heating degree days 172  
Since 1 July heating degree days 1752  
Cooling Degree Days 0 0  
Month to date cooling degree days 0  
Year to date cooling degree days 35  
Moisture  
Dew Point 31 °F    
Average Humidity 73    
Maximum Humidity 100    
Minimum Humidity 44    
Precipitation  
Precipitation 0.00 in 0.01 in 0.30 in (1987)
Month to date precipitation 0.04  
Year to date precipitation 6.01  
Sea Level Pressure  
Sea Level Pressure 30.39 in    
Wind  
Wind Speed 15 mph (WNW)    
Max Wind Speed 23 mph    
Max Gust Speed 31 mph    
Visibility 10 miles    
Events      
T = Trace of Precipitation, MM = Missing Value Source: NWS Daily Summary

Daily Weather History Graph

Daily Weather History Graph

Search for Another Location

Airport:

Trip Planner

Search our weather history database for the weather conditions in past years. The results will help you decide how hot, cold, wet, or windy it might be!

Date:

Astronomy

Nov. 05, 2012 Rise Set
Actual Time 6:59 AM MST 5:05 PM MST
Civil Twilight 6:29 AM MST 5:35 PM MST
Nautical Twilight 5:55 AM MST 6:09 PM MST
Astronomical Twilight 5:22 AM MST 6:42 PM MST
Moon 10:47 PM MST (11/5) 12:20 PM MST (11/5)
Length of Visible Light 11h 06m
Length of Day
10h 06m
Waning Gibbous, 62% of the Moon is Illuminated
Nov 5
Waning Gibbous
Nov 6
Last Quarter
Nov 13
New
Nov 20
First Quarter
Nov 28
Full

Hourly Weather History & Observations

Time (MST) Temp. Windchill Dew Point Humidity Pressure Visibility Wind Dir Wind Speed Gust Speed Precip Events Conditions
12:15 AM 35.6 °F 25.5 °F 30.2 °F 81% 30.42 in 10.0 mi WNW 17.3 mph - N/A   Mostly Cloudy
12:35 AM 37.4 °F 27.8 °F 30.2 °F 75% 30.42 in 10.0 mi WNW 17.3 mph 23.0 mph N/A   Mostly Cloudy
12:55 AM 32.0 °F 20.5 °F 28.4 °F 87% 30.42 in 10.0 mi NW 18.4 mph - N/A   Mostly Cloudy
1:15 AM 32.0 °F 21.2 °F 28.4 °F 87% 30.42 in 10.0 mi NW 16.1 mph - N/A   Overcast
1:35 AM 33.8 °F 22.8 °F 30.2 °F 87% 30.42 in 10.0 mi WNW 18.4 mph - N/A   Mostly Cloudy
1:55 AM 35.6 °F 25.5 °F 30.2 °F 81% 30.42 in 10.0 mi WNW 17.3 mph - N/A   Scattered Clouds
2:15 AM 33.8 °F 24.8 °F 30.2 °F 87% 30.42 in 10.0 mi NW 12.7 mph - N/A   Scattered Clouds
2:35 AM 33.8 °F 23.9 °F 30.2 °F 87% 30.42 in 10.0 mi NW 15.0 mph - N/A   Mostly Cloudy
2:55 AM 35.6 °F 26.2 °F 30.2 °F 81% 30.41 in 10.0 mi NW 15.0 mph - N/A   Overcast
3:15 AM 33.8 °F 23.9 °F 30.2 °F 87% 30.40 in 10.0 mi NW 15.0 mph - N/A   Scattered Clouds
3:35 AM 32.0 °F 22.5 °F 30.2 °F 93% 30.40 in 10.0 mi NW 12.7 mph - N/A   Scattered Clouds
4:35 AM 33.8 °F 24.3 °F 30.2 °F 87% 30.40 in 10.0 mi NW 13.8 mph - N/A   Scattered Clouds
4:55 AM 33.8 °F 23.9 °F 30.2 °F 87% 30.40 in 10.0 mi NW 15.0 mph - N/A   Scattered Clouds
5:15 AM 35.6 °F 26.6 °F 30.2 °F 81% 30.40 in 10.0 mi NW 13.8 mph - N/A   Clear
5:35 AM 35.6 °F 26.2 °F 30.2 °F 81% 30.39 in 10.0 mi WNW 15.0 mph - N/A   Clear
5:55 AM 35.6 °F 27.1 °F 30.2 °F 81% 30.39 in 10.0 mi WNW 12.7 mph - N/A   Scattered Clouds
6:15 AM 33.8 °F 24.8 °F 28.4 °F 81% 30.38 in 10.0 mi NNW 12.7 mph - N/A   Scattered Clouds
6:35 AM 33.8 °F 23.2 °F 30.2 °F 87% 30.38 in 10.0 mi NW 17.3 mph - N/A   Clear
6:55 AM 33.8 °F 23.9 °F 28.4 °F 81% 30.38 in 10.0 mi WNW 15.0 mph - N/A   Clear
7:15 AM 32.0 °F 23.6 °F 28.4 °F 87% 30.39 in 10.0 mi NW 10.4 mph - N/A   Clear
7:35 AM 32.0 °F 22.5 °F 28.4 °F 87% 30.41 in 10.0 mi WNW 12.7 mph - N/A   Clear
7:55 AM 35.6 °F 27.1 °F 30.2 °F 81% 30.42 in 10.0 mi WNW 12.7 mph - N/A   Clear
8:15 AM 35.6 °F 29.2 °F 30.2 °F 81% 30.43 in 10.0 mi NW 8.1 mph - N/A   Clear
8:35 AM 39.2 °F 32.5 °F 30.2 °F 70% 30.43 in 10.0 mi WNW 10.4 mph - N/A   Clear
8:55 AM 41.0 °F 32.8 °F 32.0 °F 70% 30.43 in 10.0 mi WNW 16.1 mph 21.9 mph N/A   Clear
9:15 AM 41.0 °F 33.5 °F 32.0 °F 70% 30.42 in 10.0 mi WNW 13.8 mph 19.6 mph N/A   Clear
9:35 AM 42.8 °F 36.2 °F 32.0 °F 66% 30.42 in 10.0 mi WNW 12.7 mph - N/A   Clear
9:55 AM 42.8 °F 35.4 °F 32.0 °F 66% 30.43 in 10.0 mi WNW 15.0 mph 19.6 mph N/A   Clear
10:15 AM 44.6 °F 38.1 °F 32.0 °F 61% 30.41 in 10.0 mi WNW 13.8 mph 18.4 mph N/A   Clear
10:35 AM 44.6 °F 36.4 °F 32.0 °F 61% 30.42 in 10.0 mi WNW 20.7 mph - N/A   Clear
10:55 AM 46.4 °F 39.8 °F 32.0 °F 57% 30.42 in 10.0 mi WNW 16.1 mph - N/A   Clear
11:15 AM 46.4 °F 40.1 °F 32.0 °F 57% 30.41 in 10.0 mi WNW 15.0 mph - N/A   Clear
11:35 AM 50.0 °F - 32.0 °F 50% 30.40 in 10.0 mi West 18.4 mph 21.9 mph N/A   Clear
11:55 AM 50.0 °F - 32.0 °F 50% 30.38 in 10.0 mi West 18.4 mph 24.2 mph N/A   Clear
12:15 PM 50.0 °F - 32.0 °F 50% 30.38 in 10.0 mi West 16.1 mph 21.9 mph N/A   Clear
12:35 PM 51.8 °F - 32.0 °F 47% 30.36 in 10.0 mi West 19.6 mph 23.0 mph N/A   Clear
12:55 PM 51.8 °F - 32.0 °F 47% 30.36 in 10.0 mi WNW 19.6 mph 25.3 mph N/A   Clear
1:15 PM 53.6 °F - 32.0 °F 44% 30.36 in 10.0 mi WNW 16.1 mph 24.2 mph N/A   Clear
1:35 PM 53.6 °F - 32.0 °F 44% 30.35 in 10.0 mi WNW 20.7 mph 25.3 mph N/A   Clear
1:55 PM 53.6 °F - 32.0 °F 44% 30.35 in 10.0 mi WNW 20.7 mph 27.6 mph N/A   Clear
2:15 PM 51.8 °F - 32.0 °F 47% 30.35 in 10.0 mi WNW 20.7 mph 28.8 mph N/A   Clear
2:35 PM 51.8 °F - 32.0 °F 47% 30.35 in 10.0 mi WNW 21.9 mph 31.1 mph N/A   Clear
2:55 PM 51.8 °F - 32.0 °F 47% 30.35 in 10.0 mi WNW 18.4 mph 28.8 mph N/A   Clear
3:15 PM 51.8 °F - 32.0 °F 47% 30.35 in 10.0 mi WNW 20.7 mph 29.9 mph N/A   Clear
3:35 PM 51.8 °F - 32.0 °F 47% 30.35 in 10.0 mi WNW 23.0 mph 31.1 mph N/A   Clear
3:55 PM 51.8 °F - 32.0 °F 47% 30.36 in 10.0 mi WNW 19.6 mph 26.5 mph N/A   Clear
4:15 PM 50.0 °F - 32.0 °F 50% 30.35 in 10.0 mi WNW 18.4 mph 31.1 mph N/A   Clear
4:35 PM 50.0 °F - 32.0 °F 50% 30.35 in 10.0 mi WNW 18.4 mph 27.6 mph N/A   Clear
4:55 PM 46.4 °F 39.8 °F 32.0 °F 57% 30.36 in 10.0 mi WNW 16.1 mph - N/A   Clear
5:15 PM 44.6 °F 39.7 °F 32.0 °F 61% 30.36 in 10.0 mi WNW 9.2 mph - N/A   Clear
5:35 PM 41.0 °F 34.3 °F 32.0 °F 70% 30.37 in 10.0 mi NW 11.5 mph - N/A   Clear
5:55 PM 39.2 °F 31.2 °F 32.0 °F 75% 30.38 in 10.0 mi WNW 13.8 mph - N/A   Clear
6:15 PM 41.0 °F 34.7 °F 32.0 °F 70% 30.39 in 10.0 mi NW 10.4 mph - N/A   Clear
6:35 PM 39.2 °F 32.5 °F 32.0 °F 75% 30.39 in 10.0 mi WNW 10.4 mph - N/A   Clear
6:55 PM 41.0 °F 34.7 °F 32.0 °F 70% 30.39 in 10.0 mi WNW 10.4 mph - N/A   Scattered Clouds
7:15 PM 39.2 °F 32.5 °F 32.0 °F 75% 30.39 in 10.0 mi WNW 10.4 mph - N/A   Clear
7:35 PM 37.4 °F 29.8 °F 32.0 °F 81% 30.39 in 10.0 mi WNW 11.5 mph - N/A   Scattered Clouds
7:55 PM 35.6 °F 28.0 °F 32.0 °F 87% 30.39 in 10.0 mi WNW 10.4 mph - N/A   Mostly Cloudy
8:15 PM 33.8 °F 25.8 °F 30.2 °F 87% 30.38 in 10.0 mi WNW 10.4 mph - N/A   Mostly Cloudy
8:35 PM 33.8 °F 25.8 °F 30.2 °F 87% 30.39 in 10.0 mi NW 10.4 mph - N/A   Mostly Cloudy
8:55 PM 33.8 °F 26.4 °F 32.0 °F 93% 30.39 in 10.0 mi NW 9.2 mph - N/A   Scattered Clouds
9:15 PM 32.0 °F 24.2 °F 32.0 °F 100% 30.39 in 10.0 mi WNW 9.2 mph - N/A   Clear
9:35 PM 32.0 °F 24.2 °F 30.2 °F 93% 30.39 in 10.0 mi WNW 9.2 mph - N/A   Clear
9:55 PM 32.0 °F 25.6 °F 32.0 °F 100% 30.40 in 10.0 mi NNW 6.9 mph - N/A   Clear
10:15 PM 30.2 °F 22.6 °F 30.2 °F 100% 30.40 in 10.0 mi NW 8.1 mph - N/A   Mostly Cloudy
10:35 PM 32.0 °F 24.2 °F 30.2 °F 93% 30.40 in 10.0 mi NW 9.2 mph - N/A   Mostly Cloudy
10:55 PM 32.0 °F 23.6 °F 32.0 °F 100% 30.39 in 10.0 mi WNW 10.4 mph - N/A   Scattered Clouds
11:15 PM 32.0 °F 24.2 °F 32.0 °F 100% 30.38 in 10.0 mi WNW 9.2 mph - N/A   Clear
11:35 PM 32.0 °F 23.6 °F 30.2 °F 93% 30.38 in 10.0 mi NNW 10.4 mph - N/A   Mostly Cloudy
11:55 PM 32.0 °F 22.5 °F 30.2 °F 93% 30.39 in 10.0 mi NW 12.7 mph - N/A   Scattered Clouds